TimeEST,TemperatureF,Dew PointF,Humidity,Sea Level PressureIn,VisibilityMPH,Wind Direction,Wind SpeedMPH,Gust SpeedMPH,PrecipitationIn,Events,Conditions,WindDirDegrees,DateUTC
12:20 AM,55.4,53.6,94,30.03,6.0,SSE,6.9,-,0.01,Rain,Light Rain,150,2008-12-10 05:20:00
12:50 AM,55.4,53.6,94,30.01,10.0,SSE,10.4,-,0.01,Rain,Light Rain,160,2008-12-10 05:50:00
12:54 AM,55.0,54.0,96,29.99,10.0,SE,9.2,16.1,0.01,Rain,Light Rain,140,2008-12-10 05:54:00
1:03 AM,55.4,53.6,94,30.01,7.0,SSE,9.2,17.3,0.00,Rain,Light Rain,150,2008-12-10 06:03:00
1:40 AM,55.4,53.6,94,30.02,3.0,South,10.4,-,0.09,Rain,Heavy Rain,170,2008-12-10 06:40:00
1:48 AM,55.4,55.4,100,30.01,2.5,SE,8.1,16.1,0.14,Rain,Heavy Rain,140,2008-12-10 06:48:00
1:54 AM,55.9,55.0,97,29.98,2.5,SE,4.6,-,0.20,Rain,Heavy Rain,140,2008-12-10 06:54:00
1:57 AM,55.4,55.4,100,30.01,3.0,SSE,5.8,-,0.00,Rain,Rain,150,2008-12-10 06:57:00
2:23 AM,55.4,53.6,94,30.00,2.5,South,12.7,20.7,0.17,Rain,Heavy Rain,170,2008-12-10 07:23:00
2:44 AM,55.4,53.6,94,30.00,7.0,South,12.7,-,0.31,Rain,Light Rain,170,2008-12-10 07:44:00
2:54 AM,57.0,55.0,93,29.97,5.0,South,10.4,18.4,0.34,Rain,Light Rain,190,2008-12-10 07:54:00
3:23 AM,55.4,55.4,100,29.99,4.0,South,10.4,-,0.04,Rain,Light Rain,180,2008-12-10 08:23:00
3:54 AM,57.0,55.9,96,29.97,5.0,South,8.1,19.6,0.15,Rain,Rain,190,2008-12-10 08:54:00
4:54 AM,57.0,55.9,96,29.94,7.0,South,12.7,16.1,0.06,Rain,Light Rain,180,2008-12-10 09:54:00
5:54 AM,57.9,55.9,93,29.96,6.0,South,10.4,18.4,0.02,Rain,Light Rain,170,2008-12-10 10:54:00
6:54 AM,57.9,55.9,93,29.97,5.0,South,11.5,21.9,0.02,Rain,Light Rain,190,2008-12-10 11:54:00
7:54 AM,57.0,55.9,96,29.98,5.0,South,11.5,-,0.00,Rain,Light Rain,190,2008-12-10 12:54:00
8:46 AM,57.2,55.4,94,30.03,2.5,SSW,3.5,-,0.06,Rain,Heavy Rain,210,2008-12-10 13:46:00
8:54 AM,57.0,55.9,96,30.01,3.0,WSW,4.6,-,0.08,Rain,Rain,240,2008-12-10 13:54:00
9:01 AM,55.4,55.4,100,30.03,4.0,NNW,11.5,16.1,0.01,Rain,Rain,340,2008-12-10 14:01:00
9:08 AM,55.4,53.6,94,30.03,4.0,North,6.9,-,0.02,Rain,Rain,360,2008-12-10 14:08:00
9:29 AM,55.4,53.6,94,30.04,1.8,North,5.8,-,0.11,Rain,Heavy Rain,360,2008-12-10 14:29:00
9:50 AM,53.6,53.6,100,30.05,0.8,Calm,Calm,-,0.34,Rain,Heavy Rain,0,2008-12-10 14:50:00
9:54 AM,54.0,54.0,100,30.04,0.8,Calm,Calm,-,0.42,Rain,Heavy Rain,0,2008-12-10 14:54:00
10:02 AM,53.6,53.6,100,30.06,0.5,North,5.8,-,0.21,Fog-Rain,Heavy Rain,350,2008-12-10 15:02:00
10:14 AM,53.6,53.6,100,30.07,1.5,NNW,4.6,-,0.43,Rain,Heavy Rain,340,2008-12-10 15:14:00
10:19 AM,53.6,53.6,100,30.06,2.0,Calm,Calm,-,0.45,Rain,Heavy Rain,0,2008-12-10 15:19:00
10:28 AM,53.6,53.6,100,30.06,5.0,Calm,Calm,-,0.48,Rain,Rain,0,2008-12-10 15:28:00
10:40 AM,53.6,53.6,100,30.06,5.0,Calm,Calm,-,0.50,Rain,Rain,0,2008-12-10 15:40:00
10:54 AM,55.0,54.0,96,30.04,5.0,Calm,Calm,-,0.53,Rain,Rain,0,2008-12-10 15:54:00
11:09 AM,53.6,53.6,100,30.07,3.0,Calm,Calm,-,N/A,Rain,Light Rain,0,2008-12-10 16:09:00
11:54 AM,54.0,54.0,100,30.01,3.0,SSE,3.5,-,0.08,Rain,Light Rain,150,2008-12-10 16:54:00
12:15 PM,53.6,53.6,100,30.01,0.5,SE,6.9,-,0.03,Fog-Rain,Rain,140,2008-12-10 17:15:00
12:25 PM,53.6,53.6,100,29.95,0.5,South,15.0,-,0.05,Fog-Rain,Light Rain,170,2008-12-10 17:25:00
12:29 PM,53.6,53.6,100,29.94,3.0,SE,12.7,18.4,0.05,Rain,Light Rain,140,2008-12-10 17:29:00
12:46 PM,55.4,53.6,94,29.96,10.0,SW,8.1,16.1,0.05,,Partly Cloudy,230,2008-12-10 17:46:00
12:54 PM,55.0,54.0,96,29.93,10.0,South,8.1,-,0.05,,Clear,190,2008-12-10 17:54:00
1:54 PM,55.0,54.0,96,29.93,10.0,SSE,6.9,-,N/A,,Mostly Cloudy,150,2008-12-10 18:54:00
2:17 PM,55.4,53.6,94,29.95,10.0,SSE,11.5,-,N/A,,Scattered Clouds,160,2008-12-10 19:17:00
2:54 PM,57.0,54.0,89,29.91,10.0,SE,5.8,-,N/A,,Partly Cloudy,140,2008-12-10 19:54:00
3:54 PM,57.0,54.0,89,29.94,10.0,SSE,9.2,-,N/A,,Overcast,160,2008-12-10 20:54:00
4:54 PM,57.9,54.0,87,29.93,10.0,SSE,8.1,-,N/A,,Overcast,150,2008-12-10 21:54:00
5:54 PM,57.0,54.0,89,29.91,10.0,SSE,4.6,-,0.00,,Overcast,150,2008-12-10 22:54:00
6:54 PM,55.9,54.0,93,29.91,10.0,SE,5.8,-,0.00,,Mostly Cloudy,140,2008-12-10 23:54:00
7:22 PM,55.4,53.6,94,29.96,10.0,Calm,Calm,-,N/A,,Mostly Cloudy,0,2008-12-11 00:22:00
7:54 PM,55.9,55.0,97,29.92,10.0,Calm,Calm,-,N/A,,Overcast,0,2008-12-11 00:54:00
8:04 PM,55.4,55.4,100,29.96,8.0,SSE,3.5,-,N/A,,Overcast,160,2008-12-11 01:04:00
8:54 PM,55.9,55.0,97,29.91,10.0,SSE,4.6,-,0.00,,Overcast,150,2008-12-11 01:54:00
9:54 PM,55.0,55.0,100,29.91,4.0,South,8.1,-,0.01,,Overcast,170,2008-12-11 02:54:00
10:01 PM,55.4,55.4,100,29.94,10.0,South,5.8,-,N/A,,Overcast,180,2008-12-11 03:01:00
10:44 PM,55.4,55.4,100,29.93,10.0,South,6.9,-,N/A,,Overcast,190,2008-12-11 03:44:00
10:54 PM,55.9,55.0,97,29.88,10.0,SSE,6.9,-,N/A,,Overcast,160,2008-12-11 03:54:00
11:16 PM,55.4,55.4,100,29.93,10.0,South,5.8,-,N/A,,Overcast,190,2008-12-11 04:16:00
11:54 PM,55.0,55.0,100,29.90,10.0,ESE,4.6,-,0.00,Rain,Light Rain,110,2008-12-11 04:54:00